Location: Casco Millpond
(44.5581°N, 87.6111°W)
Time: 03:00:05
(UTC+00:00)

Envisat - Visible Passes

Search period start: 06 March 2026 00:00
Search period end: 16 March 2026 00:00
Orbit: 761 x 763 km, 98.4° (Epoch: 5 March)

Date Brightness Start Highest point End Pass type
(mag) Time Alt. Az. Time Alt. Az. Time Alt. Az.
6 Mar 5.5 08:30:56 10° NNE 08:31:59 16° NNE 08:31:59 16° NNE visible
6 Mar 5.2 10:11:25 10° NNW 10:12:08 12° NNW 10:12:08 12° NNW visible
7 Mar 5.9 07:53:28 10° NNE 07:53:52 12° NNE 07:53:52 12° NNE visible
7 Mar 5.0 09:32:32 10° N 09:33:59 18° NNW 09:33:59 18° NNW visible
8 Mar 5.1 08:54:20 10° N 08:55:52 20° N 08:55:52 20° N visible
9 Mar 5.5 08:16:32 10° NNE 08:17:45 17° NNE 08:17:45 17° NNE visible
9 Mar 5.0 09:56:25 10° NNW 09:57:53 16° NNW 09:57:53 16° NNW visible
10 Mar 5.9 07:39:18 10° NE 07:39:38 11° NE 07:39:38 11° NE visible
10 Mar 4.8 09:17:51 10° N 09:19:46 22° NNW 09:19:46 22° NNW visible
11 Mar 5.0 08:39:49 10° NNE 08:41:39 23° NNE 08:41:39 23° NNE visible
11 Mar 5.1 10:20:49 10° NNW 10:21:47 12° NW 10:21:47 12° NW visible
12 Mar 5.5 08:02:13 10° NNE 08:03:31 17° NE 08:03:31 17° NE visible
12 Mar 4.7 09:41:35 10° N 09:43:39 20° NNW 09:43:39 20° NNW visible
13 Mar 6.0 07:25:18 10° NE 07:25:23 10° NE 07:25:23 10° NE visible
13 Mar 4.6 09:03:15 10° N 09:05:32 26° N 09:05:32 26° N visible
14 Mar 5.0 08:25:22 10° NNE 08:27:24 24° NNE 08:27:24 24° NNE visible
14 Mar 4.9 10:05:37 10° NNW 10:07:32 16° NW 10:07:32 16° NW visible
15 Mar 5.6 07:47:58 10° NNE 07:49:17 17° NE 07:49:17 17° NE visible
15 Mar 4.5 09:26:52 10° N 09:29:24 25° NNW 09:29:24 25° NNW visible
